NIEUW!!! Volg onze weer- en natuurfoto's op Instagram @ weerstationmaaseik.be

WS Maaseik 1 Meer informatie WS Maaseik 1


WS Maaseik 2 Meer informatie WS Maaseik 2


Regen radar Meer informatie rain snow radar


Bezoek onze andere website:

Vorige versie
weerstation Maaseik


Bezoek ook eens deze sites:

Weerstation Geleen



Het weer levert geen direct gevaar op.    Er zijn geen waarschuwingen afgegeven.

15 daagse weersverwachting Mo i Rana (NO)

  • Overzicht
  • Per uur
  • 15 dagen
  • Extra
  • Vergelijk
  • Kaarten
  • Dagkaart
  • Meer »
  • Info
  • Statistieken
  • Directe link
    Temp 6h Neerslag Wind  
 07:38     16:57    Daglengte: 9:19 Vandaag
07:00
-3°
 
5
13:00
-1°
1.2 mm
4
warningclass
19:00
-3°
1.0 mm
3
warningclass
 07:34     17:00    Daglengte: 9:26 Morgen
01:00
-2°
8.9 mm
4
warningclass
07:00
-6°
2.0 mm
3
warningclass
13:00
-4°
 
2
19:00
-7°
 
2
 07:31     17:04    Daglengte: 9:33 Woensdag 26 Feb
01:00
-10°
 
1
07:00
-10°
 
2
13:00
-7°
 
2
19:00
-9°
 
2
 07:27     17:07    Daglengte: 9:40 Donderdag 27 Feb
01:00
-10°
 
2
Locatie info
Region: Nordland
Latitude: 66.3106°N
Longitude: 14.1346°E
40 masl
Postcode: 8622
Temp/Neerslag /Baro Onweer/DauwpuntSneeuw
    Temp Baro 1h Neerslag Dauwpunt Wind UV BewolkingSneeuw  
 07:38     16:57    Daglengte: 9:19 Vandaag
07:00
-3°
Voelt als: -7.8°
994.2 hPa
14%
-6.5°
5
Windvlaag: 6.2 m/s
25%155 cm
08:00
-3°
Voelt als: -7.8°
994.6 hPa
32%
-6.6°
4
Windvlaag: 5.7 m/s
44%156 cm
09:00
-3°
Voelt als: -7.3°
995.3 hPa
36%
-6.1°
4
Windvlaag: 5.4 m/s
44%156 cm
10:00
-2°
Voelt als: -7.1°
995.9 hPa 1.2 mm
34%
-5.2°
4
Windvlaag: 6 m/s
49%156 cm warningclass
11:00
-2°
Voelt als: -7.0°
996.5 hPa
68%
-5.7°
5
Windvlaag: 6.6 m/s
53%156 cm
12:00
-1°
Voelt als: -6.5°
997.1 hPa
35%
-6.1°
5
Windvlaag: 7 m/s
51%156 cm
13:00
-1°
Voelt als: -6.2°
997.5 hPa
74%
-5.3°
4
Windvlaag: 6.8 m/s
41%156 cm
14:00
-1°
Voelt als: -6.1°
997.7 hPa
41%
-5.2°
4
Windvlaag: 7.4 m/s
44%155 cm
15:00
-1°
Voelt als: -5.8°
997.9 hPa
77%
-4.2°
4
Windvlaag: 7.4 m/s
50%155 cm
16:00
-2°
Voelt als: -5.9°
997.8 hPa
72%
-4.3°
3
Windvlaag: 6.3 m/s
70%155 cm
17:00
-3°
Voelt als: -6.5°
998.0 hPa
76%
-4.6°
3
Windvlaag: 4.9 m/s
64%155 cm
18:00
-3°
Voelt als: -6.2°
997.8 hPa 1.0 mm
76%
-4.4°
3
Windvlaag: 4.7 m/s
74%154 cm warningclass
19:00
-3°
Voelt als: -6.7°
997.7 hPa
77%
-4.6°
3
Windvlaag: 5.6 m/s
80%156 cm
20:00
-3°
Voelt als: -6.0°
997.2 hPa 1.6 mm
82%
-4.9°
2
Windvlaag: 5.5 m/s
90%156 cm warningclass
21:00
-3°
Voelt als: -5.7°
996.6 hPa 1.7 mm
82%
-4.9°
2
Windvlaag: 4.5 m/s
83%156 cm warningclass
22:00
-3°
Voelt als: -6.7°
996.0 hPa
82%
-5.8°
3
Windvlaag: 5.3 m/s
78%156 cm
23:00
-3°
Voelt als: -6.1°
995.7 hPa 2.0 mm
82%
-5.2°
2
Windvlaag: 5.3 m/s
84%156 cm warningclass
 07:34     17:00    Daglengte: 9:26 Morgen
00:00
-2°
Voelt als: -7.2°
995.3 hPa 1.6 mm
82%
-5.0°
5
Windvlaag: 7.3 m/s
76%156 cm warningclass
01:00
-2°
Voelt als: -6.6°
995.4 hPa 2.0 mm
79%
-4.8°
4
Windvlaag: 6.6 m/s
47%156 cm warningclass
02:00
-3°
Voelt als: -6.3°
995.6 hPa 2.0 mm
77%
-4.3°
3
Windvlaag: 5.2 m/s
60%156 cm warningclass
03:00
-3°
Voelt als: -6.6°
996.0 hPa
77%
-4.5°
3
Windvlaag: 3.6 m/s
49%156 cm
04:00
-3°
Voelt als: -7.1°
996.4 hPa
77%
-5.3°
3
Windvlaag: 3 m/s
42%155 cm
05:00
-3°
Voelt als: -7.2°
996.9 hPa
28%
-5.6°
3
Windvlaag: 2.9 m/s
17%155 cm
06:00
-4°
Voelt als: -8.1°
997.1 hPa
22%
-6.1°
3
Windvlaag: 3.9 m/s
19%155 cm
07:00
-6°
Voelt als: -10.0°
997.3 hPa
18%
-8.5°
3
Windvlaag: 4.2 m/s
23%155 cm
08:00
-6°
Voelt als: -10.7°
997.6 hPa
15%
-8.7°
3
Windvlaag: 4.5 m/s
24%155 cm
09:00
-6°
Voelt als: -9.5°
997.9 hPa
14%
-8.4°
2
Windvlaag: 3.7 m/s
18%155 cm
10:00
-5°
Voelt als: -8.6°
998.1 hPa
14%
-8.3°
2
Windvlaag: 3.3 m/s
12%154 cm
11:00
-5°
Voelt als: -7.8°
998.2 hPa
18%
-8.2°
2
Windvlaag: 2.9 m/s
6%154 cm
12:00
-5°
Voelt als: -7.0°
998.3 hPa
14%
-7.9°
2
Windvlaag: 2.1 m/s
3%154 cm
13:00
-4°
Voelt als: -6.6°
998.2 hPa
14%
-7.4°
2
Windvlaag: 2.3 m/s
1%154 cm
14:00
-4°
Voelt als: -6.2°
998.1 hPa
14%
-7.4°
1
Windvlaag: 2.1 m/s
3%154 cm
15:00
-4°
Voelt als: -6.7°
998.0 hPa
14%
-7.5°
1
Windvlaag: 2.1 m/s
7%154 cm
16:00
-5°
Voelt als: -8.2°
998.1 hPa
14%
-8.2°
2
Windvlaag: 2.3 m/s
9%153 cm
17:00
-6°
Voelt als: -9.8°
998.2 hPa
14%
-9.2°
2
Windvlaag: 2.6 m/s
9%153 cm
18:00
-7°
Voelt als: -11.1°
998.2 hPa
14%
-10.1°
2
Windvlaag: 3.1 m/s
7%153 cm
19:00
-7°
Voelt als: -11.3°
998.3 hPa
52%
-11.4°
2
Windvlaag: 2.9 m/s
4%153 cm
20:00
-9°
Voelt als: -12.2°
998.3 hPa
17%
-11.6°
2
Windvlaag: 2.7 m/s
8%153 cm
21:00
-9°
Voelt als: -12.7°
998.3 hPa
14%
-12.7°
2
Windvlaag: 3.1 m/s
11%153 cm
22:00
-9°
Voelt als: -12.7°
998.3 hPa
14%
-13.2°
2
Windvlaag: 3.2 m/s
28%153 cm
23:00
-9°
Voelt als: -12.1°
998.4 hPa
14%
-13.3°
1
Windvlaag: 3 m/s
23%153 cm
 07:31     17:04    Daglengte: 9:33 Woensdag 26 Feb
00:00
-9°
Voelt als: -12.3°
998.6 hPa
14%
-12.9°
1
Windvlaag: 2.4 m/s
21%152 cm
01:00
-10°
Voelt als: -12.6°
998.7 hPa
14%
-13.5°
1
Windvlaag: 2.1 m/s
24%152 cm
02:00
-10°
Voelt als: -12.9°
998.7 hPa
14%
-14.1°
1
Windvlaag: 2.1 m/s
17%152 cm
03:00
-10°
Voelt als: -13.8°
998.7 hPa
14%
-14.4°
2
Windvlaag: 2.6 m/s
11%152 cm
04:00
-10°
Voelt als: -14.1°
998.3 hPa
21%
-14.8°
2
Windvlaag: 2.6 m/s
19%152 cm
05:00
-10°
Voelt als: -14.4°
998.3 hPa
21%
-15.0°
2
Windvlaag: 2.6 m/s
28%152 cm
06:00
-10°
Voelt als: -14.4°
998.3 hPa
21%
-15.8°
2
Windvlaag: 2.8 m/s
44%151 cm
07:00
-10°
Voelt als: -14.3°
998.4 hPa
21%
-15.3°
2
Windvlaag: 2.7 m/s
52%151 cm
08:00
-10°
Voelt als: -14.4°
998.5 hPa
21%
-15.2°
2
Windvlaag: 2.4 m/s
56%151 cm
09:00
-10°
Voelt als: -13.7°
998.7 hPa
21%
-15.5°
2
Windvlaag: 2.3 m/s
53%151 cm
10:00
-9°
Voelt als: -12.5°
998.8 hPa
21%
-15.1°
2
Windvlaag: 2.3 m/s
53%151 cm
11:00
-8°
Voelt als: -10.6°
998.9 hPa
21%
-14.4°
1
Windvlaag: 2.7 m/s
54%151 cm
12:00
-7°
Voelt als: -10.0°
998.9 hPa
21%
-13.6°
1
Windvlaag: 2.6 m/s
50%150 cm
13:00
-7°
Voelt als: -9.2°
997.9 hPa
21%
-9.8°
2
Windvlaag: 0 m/s
82%150 cm
14:00
-7°
Voelt als: -9.3°
997.8 hPa
21%
-10.2°
2
Windvlaag: 0.1 m/s
86%150 cm
15:00
-7°
Voelt als: -9.6°
997.7 hPa
21%
-10.7°
2
Windvlaag: 0.4 m/s
80%150 cm
16:00
-7°
Voelt als: -10.2°
997.7 hPa
21%
-11.0°
2
Windvlaag: -0.3 m/s
80%150 cm
17:00
-8°
Voelt als: -10.7°
997.8 hPa
21%
-11.6°
2
Windvlaag: 0.1 m/s
80%150 cm
18:00
-8°
Voelt als: -11.5°
997.8 hPa
21%
-12.3°
2
Windvlaag: -0.1 m/s
79%150 cm
19:00
-9°
Voelt als: -12.0°
997.8 hPa
21%
-12.7°
2
Windvlaag: -0.1 m/s
79%150 cm
20:00
-9°
Voelt als: -12.2°
997.8 hPa
21%
-13.0°
2
Windvlaag: -0.4 m/s
79%151 cm
21:00
-9°
Voelt als: -12.3°
997.8 hPa
21%
-13.2°
2
Windvlaag: -0.3 m/s
81%152 cm
22:00
-9°
Voelt als: -12.3°
997.7 hPa
21%
-13.5°
2
Windvlaag: -1 m/s
78%152 cm
23:00
-9°
Voelt als: -12.6°
997.7 hPa
21%
-13.7°
2
Windvlaag: -0.8 m/s
76%152 cm
 07:27     17:07    Daglengte: 9:40 Donderdag 27 Feb
00:00
-9°
Voelt als: -12.9°
997.6 hPa
21%
-14.0°
2
Windvlaag: -0.6 m/s
70%152 cm
01:00
-10°
Voelt als: -14.0°
997.5 hPa
21%
-14.9°
2
Windvlaag: -0.2 m/s
51%152 cm
02:00
-10°
Voelt als: -13.7°
997.2 hPa
21%
-14.9°
2
Windvlaag: 2.1 m/s
61%152 cm
03:00
-11°
Voelt als: -14.0°
997.0 hPa
21%
-15.4°
2
Windvlaag: 2 m/s
61%152 cm
04:00
-11°
Voelt als: -14.4°
996.9 hPa
21%
-15.9°
2
Windvlaag: 1.9 m/s
76%152 cm
05:00
-11°
Voelt als: -14.2°
996.8 hPa
21%
-16.0°
2
Windvlaag: 2 m/s
55%152 cm
06:00
-11°
Voelt als: -14.3°
996.7 hPa
21%
-16.5°
1
Windvlaag: 1.5 m/s
63%151 cm
Temp/Neerslag /Baro Onweer/DauwpuntSneeuw
    Temp Baro Neerslag Dauwpunt Wind BewolkingSneeuw  
 07:38     16:57    Daglengte: 9:19 Vandaag
07:00
-3°
Voelt als: -7.8°
994.2 hPa   -6.5°
5
25%155 cm
10:00
-2°
Voelt als: -7.1°
995.9 hPa 1.2 mm -5.2°
4
49%156 cm warningclass
13:00
-1°
Voelt als: -6.2°
997.5 hPa   -5.3°
4
41%156 cm
16:00
-2°
Voelt als: -5.9°
997.8 hPa   -4.3°
3
70%155 cm
19:00
-3°
Voelt als: -6.7°
997.7 hPa 1.0 mm -4.6°
3
80%156 cm warningclass
22:00
-3°
Voelt als: -6.7°
996.0 hPa 3.3 mm -5.8°
3
78%156 cm warningclass
 07:34     17:00    Daglengte: 9:26 Morgen
01:00
-2°
Voelt als: -6.6°
995.4 hPa 5.6 mm -4.8°
4
47%156 cm warningclass
04:00
-3°
Voelt als: -7.1°
996.4 hPa 2.0 mm -5.3°
3
42%155 cm warningclass
07:00
-6°
Voelt als: -10.0°
997.3 hPa   -8.5°
3
23%155 cm
10:00
-5°
Voelt als: -8.6°
998.1 hPa   -8.3°
2
12%154 cm
13:00
-4°
Voelt als: -6.6°
998.2 hPa   -7.4°
2
1%154 cm
16:00
-5°
Voelt als: -8.2°
998.1 hPa   -8.2°
2
9%153 cm
19:00
-7°
Voelt als: -11.3°
998.3 hPa   -11.4°
2
4%153 cm
22:00
-9°
Voelt als: -12.7°
998.3 hPa   -13.2°
2
28%153 cm
 07:31     17:04    Daglengte: 9:33 Woensdag 26 Feb
01:00
-10°
Voelt als: -12.6°
998.7 hPa   -13.5°
1
24%152 cm
04:00
-10°
Voelt als: -14.1°
998.3 hPa   -14.8°
2
19%152 cm
07:00
-10°
Voelt als: -14.3°
998.4 hPa   -15.3°
2
52%151 cm
10:00
-9°
Voelt als: -12.5°
998.8 hPa   -15.1°
2
53%151 cm
13:00
-7°
Voelt als: -9.2°
997.9 hPa   -9.8°
2
82%150 cm
16:00
-7°
Voelt als: -10.2°
997.7 hPa   -11.0°
2
80%150 cm
19:00
-9°
Voelt als: -12.0°
997.8 hPa   -12.7°
2
79%150 cm
22:00
-9°
Voelt als: -12.3°
997.7 hPa   -13.5°
2
78%152 cm
 07:27     17:07    Daglengte: 9:40 Donderdag 27 Feb
01:00
-10°
Voelt als: -14.0°
997.5 hPa   -14.9°
2
51%152 cm
04:00
-11°
Voelt als: -14.4°
996.9 hPa   -15.9°
2
76%152 cm
07:00
-11°
Voelt als: -13.8°
996.6 hPa   -16.4°
1
89%151 cm
10:00
-8°
Voelt als: -11.1°
996.8 hPa 10.2 mm -15.0°
2
92% warningclass
13:00
-6°
Voelt als: -9.8°
996.8 hPa 10.2 mm -13.8°
2
92% warningclass
16:00
-8°
Voelt als: -11.6°
996.4 hPa 10.2 mm -14.7°
2
90% warningclass
19:00
-9°
Voelt als: -13.6°
996.0 hPa 10.2 mm -15.7°
3
89% warningclass
22:00
-9°
Voelt als: -13.1°
996.2 hPa 10.2 mm -14.9°
2
88% warningclass
 07:23     17:11    Daglengte: 9:48 Vrijdag 28 Feb
01:00
-9°
Voelt als: -12.6°
996.3 hPa 10.2 mm -13.9°
2
87% warningclass
04:00
-9°
Voelt als: -13.7°
996.0 hPa 10.2 mm -14.0°
2
88% warningclass
07:00
-10°
Voelt als: -14.8°
995.7 hPa 10.2 mm -14.0°
2
88% warningclass
10:00
-9°
Voelt als: -13.3°
995.7 hPa 10.2 mm -12.5°
3
89% warningclass
13:00
-7°
Voelt als: -11.7°
995.6 hPa 10.2 mm -11.1°
3
89% warningclass
16:00
-8°
Voelt als: -13.0°
995.3 hPa 10.2 mm -11.8°
3
88% warningclass
19:00
-9°
Voelt als: -14.4°
995.0 hPa 10.2 mm -12.6°
3
86% warningclass
22:00
-9°
Voelt als: -13.5°
994.9 hPa 10.2 mm -12.0°
2
87% warningclass
 07:19     17:14    Daglengte: 9:55 Zaterdag 29 Feb
01:00
-9°
Voelt als: -12.7°
994.8 hPa 10.2 mm -11.5°
2
87% warningclass
04:00
-9°
Voelt als: -13.7°
994.1 hPa 10.2 mm -11.9°
2
88% warningclass
07:00
-10°
Voelt als: -14.6°
993.4 hPa 10.2 mm -12.5°
3
89% warningclass
10:00
-8°
Voelt als: -12.7°
993.5 hPa 10.2 mm -11.1°
3
89% warningclass
13:00
-6°
Voelt als: -10.9°
993.5 hPa 10.2 mm -9.8°
3
88% warningclass
16:00
-7°
Voelt als: -12.0°
993.2 hPa 10.2 mm -10.2°
3
89% warningclass
19:00
-8°
Voelt als: -13.2°
993.0 hPa 10.2 mm -10.8°
3
90% warningclass
22:00
-7°
Voelt als: -11.9°
993.2 hPa 10.2 mm -10.1°
2
90% warningclass
 07:15     17:18    Daglengte: 10:03 Zondag 01 Maa
01:00
-7°
Voelt als: -10.5°
993.4 hPa 10.2 mm -9.4°
2
90% warningclass
04:00
-7°
Voelt als: -10.3°
992.1 hPa 10.8 mm -9.0°
2
91% warningclass
07:00
-7°
Voelt als: -10.5°
991.0 hPa 12.0 mm -9.1°
2
91% warningclass
10:00
-6°
Voelt als: -9.1°
991.4 hPa 13.4 mm -8.6°
2
91% warningclass
13:00
-5°
Voelt als: -7.8°
991.9 hPa 15.4 mm -7.9°
2
90% warningclass
16:00
-5°
Voelt als: -9.1°
992.5 hPa 16.4 mm -8.4°
2
90% warningclass
19:00
-6°
Voelt als: -10.4°
993.1 hPa 16.8 mm -8.9°
2
90% warningclass
22:00
-6°
Voelt als: -9.2°
994.1 hPa 17.0 mm -8.6°
2
90% warningclass
 07:11     17:21    Daglengte: 10:10 Maandag 02 Maa
01:00
-6°
Voelt als: -7.8°
994.8 hPa 17.4 mm -8.3°
1
90% warningclass
04:00
-6°
Voelt als: -8.4°
995.5 hPa   -8.4°
1
91% warningclass
07:00
-7°
Voelt als: -9.3°
996.4 hPa 43.5 mm -8.7°
2
91% warningclass
13:00
-3°
Voelt als: -5.7°
999.0 hPa 47.4 mm -6.1°
2
86% warningclass
19:00
-6°
Voelt als: -8.7°
1000.9 hPa 49.6 mm -8.1°
2
89% warningclass
 07:07     17:24    Daglengte: 10:17 Dinsdag 03 Maa
01:00
-7°
Voelt als: -9.3°
1003.4 hPa 56.9 mm -8.7°
1
89% warningclass
07:00
-7°
Voelt als: -9.5°
1004.5 hPa 69.9 mm -8.6°
1
90% warningclass
13:00
-8°
Voelt als: -12.0°
1011.4 hPa 78.4 mm -11.9°
2
2% warningclass
19:00
-5°
Voelt als: -9.1°
1008.7 hPa 85.6 mm -7.8°
2
59% warningclass
 07:04     17:28    Daglengte: 10:24 Woensdag 04 Maa
01:00
-6°
Voelt als: -9.8°
1010.7 hPa 88.2 mm -8.5°
2
85% warningclass
07:00
-10°
Voelt als: -13.8°
1011.5 hPa 88.7 mm -11.9°
2
88% warningclass
13:00
-2°
Voelt als: -4.7°
1009.3 hPa 88.7 mm -6.1°
2
0% warningclass
19:00
-9°
Voelt als: -14.5°
1007.8 hPa 88.7 mm -17.7°
3
0% warningclass
 07:00     17:31    Daglengte: 10:31 Donderdag 05 Maa
01:00
-4°
Voelt als: -8.4°
991.8 hPa 0.8 mm -5.9°
3
73%
07:00
-4°
Voelt als: -7.2°
991.1 hPa 0.8 mm -5.2°
2
75%
13:00
-1°
Voelt als: -2.9°
991.5 hPa 0.8 mm -2.7°
2
70%
19:00
-4°
Voelt als: -6.1°
991.6 hPa 0.8 mm -5.1°
1
72%
 06:56     17:35    Daglengte: 10:39 Vrijdag 06 Maa
01:00
-4°
Voelt als: -7.1°
992.2 hPa 1.5 mm -5.5°
2
72%
07:00
-5°
Voelt als: -8.1°
992.3 hPa 0.8 mm -6.5°
2
63%
13:00
-1°
Voelt als: -4.3°
991.6 hPa 0.7 mm -3.0°
2
63%
19:00
-6°
Voelt als: -8.6°
991.8 hPa 0.8 mm -6.6°
2
65%
 06:52     17:38    Daglengte: 10:46 Zaterdag 07 Maa
01:00
-7°
Voelt als: -9.0°
993.5 hPa 0.8 mm -7.9°
1
57%
07:00
-7°
Voelt als: -8.8°
994.7 hPa 0.8 mm -7.6°
1
51%
13:00
-1°
Voelt als: -2.3°
996.3 hPa 1.0 mm -2.3°
1
54%
19:00
-6°
Voelt als: -8.1°
997.7 hPa 1.0 mm -6.5°
1
57%
 06:48     17:41    Daglengte: 10:53 Zondag 08 Maa
01:00
-6°
Voelt als: -8.8°
999.4 hPa 0.9 mm -6.8°
2
60%
07:00
-6°
Voelt als: -7.6°
1000.5 hPa 0.8 mm -7.1°
1
61%
13:00
-2°
Voelt als: -2.6°
1001.7 hPa 1.0 mm -3.2°
1
56%
19:00
-6°
Voelt als: -8.0°
1002.9 hPa 1.1 mm -6.7°
1
60%
 06:44     17:45    Daglengte: 11:01 Maandag 09 Maa
01:00
-6°
Voelt als: -9.9°
1003.4 hPa 1.0 mm -7.5°
2
57%
07:00
-6°
Voelt als: -9.9°
1002.2 hPa 0.9 mm -7.4°
2
59%
13:00
-1°
Voelt als: -4.0°
1000.6 hPa 1.0 mm -2.5°
3
58%
19:00
-5°
Voelt als: -7.3°
1000.3 hPa 1.3 mm -6.0°
2
57%
 06:40     17:48    Daglengte: 11:08 Dinsdag 10 Maa
01:00
-5°
Voelt als: -7.8°
1000.7 hPa 1.3 mm -6.0°
2
63%
  CAPE Lifted Index Hail Supercell Tornado SRH 3km CL BTM PRES CL TOP PRES Swiss DWD icon SMHI TS
 07:38     16:57    Daglengte: 9:19 Vandaag
07:00 3 J/kg 0.7 K 0 % 0 % 0 % 0 m²/s² 0 0 1.39 1
08:00 0 J/kg 1.2 K 0 % 0 % 0 % 0 m²/s² 0 0 2.46 2
09:00 69 J/kg 1.8 K 0 % 0 % 0 % 0 m²/s² 0 0 3.39 2
10:00 57 J/kg 1.7 K 0 % 0 % 0 % 0 m²/s² 0 0 3.2 2
11:00 12 J/kg 1.9 K 0 % 0 % 0 % 0 m²/s² 0 0 5.14 2
12:00 79 J/kg 1.1 K 0 % 0 % 0 % 0 m²/s² 0 0 3.35 2
13:00 7 J/kg 1.7 K 0 % 0 % 0 % 0 m²/s² 0 0 5.03 2
14:00 22 J/kg 1.4 K 0 % 0 % 0 % 0 m²/s² 0 0 4.58 2
15:00 104 J/kg 0.6 K 0 % 0 % 0 % 0 m²/s² 0 0 3.54 3
16:00 91 J/kg 0.7 K 0 % 0 % 0 % 0 m²/s² 0 0 3.88 3
17:00 37 J/kg 0.8 K 0 % 0 % 0 % 0 m²/s² 0 0 4.91 85
18:00 28 J/kg 1.1 K 0 % 0 % 0 % 0 m²/s² 0 0 2.15 85
19:00 7 J/kg 0.5 K 0 % 0 % 0 % 0 m²/s² 0 0 1.16 85
20:00 0 J/kg 1.1 K 0 % 0 % 0 % 0 m²/s² 0 0 1.82 3
21:00 0 J/kg 0.7 K 0 % 0 % 0 % 0 m²/s² 0 0 1.81 3
22:00 0 J/kg 0.3 K 0 % 0 % 0 % 0 m²/s² 0 0 2.1 3
23:00 0 J/kg 0.2 K 0 % 0 % 0 % 0 m²/s² 0 0 0.77 85
 07:34     17:00    Daglengte: 9:26 Morgen
00:00 12 J/kg 1.4 K 0 % 0 % 0 % 0 m²/s² 0 0 3.32 85
01:00 0 J/kg 1.7 K 0 % 0 % 0 % 0 m²/s² 0 0 3.23 2
02:00 0 J/kg 2.2 K 0 % 0 % 0 % 0 m²/s² 0 0 5.11 85
03:00 0 J/kg 1.7 K 0 % 0 % 0 % 0 m²/s² 0 0 3.98 2
04:00 11 J/kg 1.3 K 0 % 0 % 0 % 0 m²/s² 0 0 4.36 2
05:00 9 J/kg 1.2 K 0 % 0 % 0 % 0 m²/s² 0 0 4.86 2
06:00 0 J/kg 1.0 K 0 % 0 % 0 % 0 m²/s² 0 0 3.91 2
07:00 0 J/kg 2.3 K 0 % 0 % 0 % 0 m²/s² 0 0 5.45 2
08:00 0 J/kg 3.3 K 0 % 0 % 0 % 0 m²/s² 0 0 8.22 2
09:00 0 J/kg 3.2 K 0 % 0 % 0 % 0 m²/s² 0 0 8.57 2
10:00 0 J/kg 3.3 K 0 % 0 % 0 % 0 m²/s² 0 0 7.62 2
11:00 0 J/kg 3.4 K 0 % 0 % 0 % 0 m²/s² 0 0 5.29 2
12:00 0 J/kg 3.5 K 0 % 0 % 0 % 0 m²/s² 0 0 6.02 2
13:00 0 J/kg 3.5 K 0 % 0 % 0 % 0 m²/s² 0 0 5.96 1
14:00 0 J/kg 3.9 K 0 % 0 % 0 % 0 m²/s² 0 0 5.97 0
15:00 0 J/kg 4.3 K 0 % 0 % 0 % 0 m²/s² 0 0 6.88 1
16:00 0 J/kg 4.9 K 0 % 0 % 0 % 0 m²/s² 0 0 6.79 1
17:00 0 J/kg 4.8 K 0 % 0 % 0 % 0 m²/s² 0 0 6.57 0
18:00 0 J/kg 4.6 K 0 % 0 % 0 % 0 m²/s² 0 0 6.28 0
19:00 0 J/kg 4.5 K 0 % 0 % 0 % 0 m²/s² 0 0 6.33 0
20:00 0 J/kg 4.1 K 0 % 0 % 0 % 0 m²/s² 0 0 6.05 2
21:00 0 J/kg 3.9 K 0 % 0 % 0 % 0 m²/s² 0 0 5.61 3
22:00 0 J/kg 4.1 K 0 % 0 % 0 % 0 m²/s² 0 0 5.27 3
23:00 0 J/kg 4.0 K 0 % 0 % 0 % 0 m²/s² 0 0 4.9 3
 07:31     17:04    Daglengte: 9:33 Woensdag 26 Feb
00:00 0 J/kg 4.2 K 0 % 0 % 0 % 0 m²/s² 0 0 5.01 2
01:00 0 J/kg 3.8 K 0 % 0 % 0 % 0 m²/s² 0 0 4.49 2
02:00 0 J/kg 3.7 K 0 % 0 % 0 % 0 m²/s² 0 0 4.57 2
03:00 0 J/kg 4.0 K 0 % 0 % 0 % 0 m²/s² 0 0 4.75 1
04:00 0 J/kg 4.0 K 0 % 0 % 0 % 0 m²/s² 0 0 4.75 0
05:00 0 J/kg 4.2 K 0 % 0 % 0 % 0 m²/s² 0 0 4.86 0
06:00 0 J/kg 2.8 K 0 % 0 % 0 % 0 m²/s² 0 0 3.7 0
07:00 0 J/kg 2.9 K 0 % 0 % 0 % 0 m²/s² 0 0 3.74 1
08:00 0 J/kg 3.3 K 0 % 0 % 0 % 0 m²/s² 0 0 4.05 1
09:00 0 J/kg 2.8 K 0 % 0 % 0 % 0 m²/s² 0 0 3.79 1
10:00 0 J/kg 2.5 K 0 % 0 % 0 % 0 m²/s² 0 0 3.13 1
11:00 0 J/kg 2.4 K 0 % 0 % 0 % 0 m²/s² 0 0 3.66 2
12:00 0 J/kg 2.3 K 0 % 0 % 0 % 0 m²/s² 0 0 3.35 1
13:00 0 J/kg 2.4 K 0 % 0 % 0 % 0 m²/s² 0 0 3.78 1
14:00 0 J/kg 1.9 K 0 % 0 % 0 % 0 m²/s² 0 0 3.13 2
15:00 0 J/kg 1.7 K 0 % 0 % 0 % 0 m²/s² 0 0 3.38 1
16:00 0 J/kg 1.3 K 0 % 0 % 0 % 0 m²/s² 0 0 3.16 0
17:00 0 J/kg 1.4 K 0 % 0 % 0 % 0 m²/s² 0 0 2.03 1
18:00 0 J/kg 0.9 K 0 % 0 % 0 % 0 m²/s² 0 0 2.85 1
19:00 0 J/kg 0.7 K 0 % 0 % 0 % 0 m²/s² 0 0 2.44 1
20:00 0 J/kg 1.2 K 0 % 0 % 0 % 0 m²/s² 0 0 2.16 1
21:00 0 J/kg 1.0 K 0 % 0 % 0 % 0 m²/s² 0 0 2.38 1
22:00 0 J/kg 1.3 K 0 % 0 % 0 % 0 m²/s² 0 0 2.68 2
23:00 0 J/kg 0.8 K 0 % 0 % 0 % 0 m²/s² 0 0 2.48 1
 07:27     17:07    Daglengte: 9:40 Donderdag 27 Feb
00:00 0 J/kg 0.9 K 0 % 0 % 0 % 0 m²/s² 0 0 2.64 1
01:00 0 J/kg 0.9 K 0 % 0 % 0 % 0 m²/s² 0 0 2.85 2
02:00 0 J/kg 1.0 K 0 % 0 % 0 % 0 m²/s² 0 0 3.13 1
03:00 0 J/kg 0.9 K 0 % 0 % 0 % 0 m²/s² 0 0 3.18 1
04:00 0 J/kg 0.9 K 0 % 0 % 0 % 0 m²/s² 0 0 3.36 2
05:00 0 J/kg 1.3 K 0 % 0 % 0 % 0 m²/s² 0 0 4.12 1
06:00 0 J/kg 1.5 K 0 % 0 % 0 % 0 m²/s² 0 0 4.56 2
Temp Baro Wind Neerslag
  EWN Forecast EWN WRFDA DWD ICON FMI HIRLAM MET Norway GFS
 07:38     16:57    Daglengte: 9:19 Vandaag
07:00 -2.5° 994.2 hPa 4.6 m/s 0.0 mm -3.2° 992.5 hPa 4.3 m/s 1.9 mm -2.4° 994.1 hPa 4.6 m/s -2.0 mm -2.4° 994.8 hPa 4.0 m/s 0.0 mm -2.2° 994.2 hPa 4.5 m/s -6.0° 994.6 hPa 2.5 m/s
10:00 -2.3° 995.9 hPa 4.0 m/s 1.2 mm -1.8° 993.6 hPa 9.3 m/s 11.5 mm -2.0° 995.6 hPa 4.1 m/s 0.0 mm -3.1° 996.2 hPa 2.7 m/s 0.0 mm -1.9° 996.0 hPa 3.5 m/s -3.4° 995.9 hPa 3.1 m/s
13:00 -1.5° 997.5 hPa 4.2 m/s 0.0 mm -2.3° 994.9 hPa 6.9 m/s 13.3 mm -1.4° 996.8 hPa 4.1 m/s 0.0 mm -1.3° 997.8 hPa 3.6 m/s 0.0 mm -0.7° 998.1 hPa 4.2 m/s -2.0° 997.7 hPa 2.6 m/s
16:00 -1.9° 997.8 hPa 3.1 m/s 0.0 mm -2.6° 996.3 hPa 3.4 m/s 13.5 mm -1.9° 997.6 hPa 2.9 m/s 0.0 mm -0.8° 998.3 hPa 3.4 m/s 0.0 mm -1.5° 997.8 hPa 2.6 m/s -5.1° 998.5 hPa 1.9 m/s
19:00 -2.8° 997.7 hPa 2.8 m/s 1.0 mm -2.1° 995.1 hPa 3.8 m/s 15.5 mm -2.4° 996.9 hPa 1.4 m/s 0.3 mm -2.6° 998.5 hPa 2.8 m/s 0.0 mm -2.7° 997.9 hPa 3.3 m/s -7.0° 997.9 hPa 1.3 m/s
22:00 -2.9° 996.0 hPa 2.8 m/s 3.3 mm -2.6° 993.2 hPa 7.0 m/s 23.0 mm -2.6° 995.7 hPa 0.9 m/s 0.2 mm -3.1° 997.2 hPa 3.6 m/s 0.0 mm -2.2° 996.3 hPa 2.2 m/s -4.8° 997.2 hPa 1.3 m/s
 07:34     17:00    Daglengte: 9:26 Morgen
01:00 -2.1° 995.4 hPa 3.7 m/s 5.6 mm -1.9° 992.3 hPa 5.4 m/s 24.9 mm -2.9° 997.2 hPa 2.1 m/s 0.9 mm -1.2° 994.4 hPa 8.2 m/s 0.0 mm -1.6° 995.5 hPa 3.5 m/s -5.1° 996.1 hPa 0.7 m/s
04:00 -2.9° 996.4 hPa 3.1 m/s 2.0 mm -1.8° 993.0 hPa 5.2 m/s 26.4 mm -2.9° 997.6 hPa 2.9 m/s 0.2 mm -0.6° 994.5 hPa 3.4 m/s 0.0 mm -3.4° 996.8 hPa 1.5 m/s -5.7° 996.0 hPa 0.5 m/s
07:00 -5.6° 997.3 hPa 2.7 m/s 0.0 mm -8.2° 993.5 hPa 4.7 m/s 26.6 mm -3.7° 997.8 hPa 2.1 m/s 0.0 mm -3.0° 995.2 hPa 2.5 m/s 0.0 mm -5.8° 997.8 hPa 2.6 m/s -8.4° 996.6 hPa 0.7 m/s
10:00 -5.3° 998.1 hPa 2.0 m/s 0.0 mm -7.5° 995.5 hPa 1.6 m/s 26.6 mm -4.9° 998.2 hPa 0.2 m/s 0.0 mm -2.0° 995.7 hPa 2.7 m/s 0.0 mm -5.3° 998.8 hPa 2.1 m/s -8.2° 997.6 hPa 0.5 m/s
13:00 -4.2° 998.2 hPa 1.5 m/s 0.0 mm -6.7° 995.9 hPa 1.5 m/s 26.6 mm -4.3° 998.3 hPa 1.0 m/s 0.0 mm -2.0° 996.0 hPa 2.3 m/s 0.0 mm -3.7° 998.9 hPa 1.4 m/s -5.9° 997.8 hPa 0.9 m/s
16:00 -5.4° 998.1 hPa 1.7 m/s 0.0 mm -11.7° 996.6 hPa 1.7 m/s 26.6 mm -4.4° 997.8 hPa 1.0 m/s 0.0 mm -2.9° 996.3 hPa 1.9 m/s 0.0 mm -4.9° 999.2 hPa 1.7 m/s -8.8° 998.2 hPa 1.5 m/s
19:00 -7.5° 998.3 hPa 2.1 m/s 0.0 mm -6.9° 996.9 hPa 3.1 m/s 26.6 mm -7.4° 997.8 hPa 1.4 m/s 0.0 mm -3.4° 996.9 hPa 2.1 m/s 0.0 mm -8.0° 999.3 hPa 2.1 m/s -11.3° 999.0 hPa 2.1 m/s
22:00 -9.1° 998.3 hPa 1.8 m/s 0.0 mm -10.4° 996.7 hPa 3.7 m/s 26.6 mm -8.9° 997.4 hPa 1.2 m/s 0.0 mm -6.3° 998.0 hPa 1.1 m/s 0.0 mm -9.0° 999.1 hPa 1.8 m/s -12.1° 999.3 hPa 2.1 m/s
 07:31     17:04    Daglengte: 9:33 Woensdag 26 Feb
01:00 -9.7° 998.7 hPa 1.4 m/s 0.0 mm -7.0° 997.1 hPa 0.9 m/s 26.6 mm -9.5° 997.3 hPa 1.2 m/s 0.0 mm -8.8° 998.9 hPa 1.1 m/s 0.0 mm -9.9° 999.1 hPa 1.5 m/s -12.4° 1000.0 hPa 2.0 m/s
04:00 -10.2° 998.3 hPa 1.9 m/s 0.0 mm -6.8° 996.5 hPa 0.9 m/s 26.6 mm -10.3° 997.2 hPa 1.4 m/s 0.0 mm -10.2° 998.6 hPa 2.1 m/s -13.2° 999.9 hPa 1.6 m/s
07:00 -10.3° 998.4 hPa 1.9 m/s 0.0 mm -5.4° 996.1 hPa 1.0 m/s 26.6 mm -11.4° 996.9 hPa 1.5 m/s 0.0 mm -10.2° 998.7 hPa 2.1 m/s -14.1° 1000.2 hPa 1.5 m/s
10:00 -9.2° 998.8 hPa 1.6 m/s 0.0 mm -4.5° 997.4 hPa 1.2 m/s 26.6 mm -11.2° 997.5 hPa 1.5 m/s 0.0 mm -8.9° 999.1 hPa 1.7 m/s -10.3° 1000.9 hPa 1.5 m/s
13:00 -6.5° 997.9 hPa 1.5 m/s 0.0 mm -4.7° 998.3 hPa 3.5 m/s 27.1 mm -8.3° 997.4 hPa 1.4 m/s 0.0 mm -6.1° 997.6 hPa 1.1 m/s -7.1° 1001.0 hPa 0.8 m/s
16:00 -7.3° 997.7 hPa 1.5 m/s 0.0 mm -4.3° 998.5 hPa 3.7 m/s 27.6 mm -7.9° 996.9 hPa 1.2 m/s 0.0 mm -7.2° 997.5 hPa 1.4 m/s -10.2° 1001.5 hPa 0.7 m/s
19:00 -8.8° 997.8 hPa 1.6 m/s 0.0 mm -4.7° 999.4 hPa 1.9 m/s 29.6 mm -10.7° 997.0 hPa 1.4 m/s 0.0 mm -8.3° 997.4 hPa 1.6 m/s -12.0° 1002.2 hPa 1.3 m/s
22:00 -9.1° 997.7 hPa 1.6 m/s 0.0 mm -4.8° 1000.5 hPa 0.3 m/s 36.3 mm -12.0° 997.2 hPa 1.6 m/s 0.0 mm -8.6° 997.2 hPa 1.6 m/s -12.9° 1002.6 hPa 0.9 m/s
 07:27     17:07    Daglengte: 9:40 Donderdag 27 Feb
01:00 -10.3° 997.5 hPa 1.7 m/s 0.0 mm -9.9° 1000.9 hPa 2.1 m/s 39.0 mm -12.8° 996.5 hPa 1.5 m/s 0.0 mm -8.8° 997.0 hPa 1.7 m/s -13.4° 1002.2 hPa 1.3 m/s
04:00 -10.9° 996.9 hPa 1.6 m/s 0.0 mm -12.2° 1000.2 hPa 1.8 m/s 39.1 mm -13.2° 995.9 hPa 1.6 m/s 0.0 mm -9.4° 996.6 hPa 1.6 m/s -13.4° 1001.8 hPa 1.4 m/s
07:00 -10.7° 996.6 hPa 1.5 m/s 0.0 mm -10.8° 1000.5 hPa 1.1 m/s 39.1 mm -13.0° 995.8 hPa 1.5 m/s 0.0 mm -9.9° 996.3 hPa 1.5 m/s -12.7° 1001.4 hPa 1.8 m/s
10:00 -7.7° 996.8 hPa 1.8 m/s 10.2 mm -7.6° 996.4 hPa 1.8 m/s -8.6° 1000.8 hPa 2.4 m/s 10.2 mm
13:00 -6.4° 996.8 hPa 1.9 m/s 10.2 mm -6.5° 996.5 hPa 1.9 m/s -5.5° 1000.1 hPa 1.9 m/s 10.2 mm
16:00 -7.5° 996.4 hPa 2.2 m/s 10.2 mm -7.5° 996.1 hPa 2.3 m/s -6.9° 999.4 hPa 1.7 m/s 10.2 mm
19:00 -8.7° 996.0 hPa 2.7 m/s 10.2 mm -8.6° 995.7 hPa 2.7 m/s -10.1° 999.7 hPa 2.1 m/s 10.2 mm
22:00 -8.8° 996.2 hPa 2.3 m/s 10.2 mm -8.5° 995.9 hPa 2.3 m/s -12.5° 999.4 hPa 1.8 m/s 10.2 mm
 07:23     17:11    Daglengte: 9:48 Vrijdag 28 Feb
01:00 -8.8° 996.3 hPa 1.9 m/s 10.2 mm -8.4° 996.1 hPa 1.9 m/s -13.1° 999.0 hPa 2.1 m/s 10.2 mm
04:00 -9.4° 996.0 hPa 2.2 m/s 10.2 mm -9.0° 995.8 hPa 2.2 m/s -13.6° 998.0 hPa 2.0 m/s 10.2 mm
07:00 -10.0° 995.7 hPa 2.5 m/s 10.2 mm -9.6° 995.5 hPa 2.5 m/s -13.9° 998.1 hPa 2.0 m/s 10.2 mm
10:00 -8.5° 995.7 hPa 2.6 m/s 10.2 mm -8.3° 995.5 hPa 2.6 m/s -10.7° 998.0 hPa 2.1 m/s 10.2 mm
13:00 -7.1° 995.6 hPa 2.7 m/s 10.2 mm -7.1° 995.4 hPa 2.8 m/s -7.6° 998.0 hPa 1.2 m/s 10.2 mm
16:00 -8.2° 995.3 hPa 2.7 m/s 10.2 mm -8.1° 995.0 hPa 2.8 m/s -9.3° 998.2 hPa 2.0 m/s 10.2 mm
19:00 -9.4° 995.0 hPa 2.6 m/s 10.2 mm -9.2° 994.7 hPa 2.7 m/s -11.8° 998.4 hPa 1.9 m/s 10.2 mm
22:00 -9.0° 994.9 hPa 2.4 m/s 10.2 mm -8.6° 994.6 hPa 2.5 m/s -12.4° 998.1 hPa 2.1 m/s 10.2 mm
 07:19     17:14    Daglengte: 9:55 Zaterdag 29 Feb
01:00 -8.6° 994.8 hPa 2.2 m/s 10.2 mm -8.1° 994.5 hPa 2.2 m/s -13.6° 997.7 hPa 2.0 m/s 10.2 mm
04:00 -9.1° 994.1 hPa 2.5 m/s 10.2 mm -8.7° 993.9 hPa 2.4 m/s -13.3° 996.4 hPa 3.0 m/s 10.2 mm
07:00 -9.7° 993.4 hPa 2.6 m/s 10.2 mm -9.3° 993.2 hPa 2.6 m/s -13.7° 995.5 hPa 2.7 m/s 10.2 mm
10:00 -8.0° 993.5 hPa 2.7 m/s 10.2 mm -7.7° 993.4 hPa 2.8 m/s -11.4° 995.0 hPa 1.8 m/s 10.2 mm
13:00 -6.3° 993.5 hPa 2.8 m/s 10.2 mm -6.1° 993.5 hPa 2.9 m/s -8.5° 993.9 hPa 2.0 m/s 10.2 mm
16:00 -7.1° 993.2 hPa 3.0 m/s 10.2 mm -6.8° 993.2 hPa 3.0 m/s -9.4° 993.1 hPa 2.3 m/s 10.2 mm
19:00 -8.0° 993.0 hPa 3.1 m/s 10.2 mm -7.6° 993.0 hPa 3.2 m/s -11.9° 992.8 hPa 2.5 m/s 10.2 mm
22:00 -7.5° 993.2 hPa 2.5 m/s 10.2 mm -7.0° 993.4 hPa 2.5 m/s -12.3° 992.0 hPa 1.9 m/s 10.2 mm
 07:15     17:18    Daglengte: 10:03 Zondag 01 Maa
01:00 -7.0° 993.4 hPa 2.0 m/s 10.2 mm -6.5° 993.7 hPa 1.9 m/s -12.0° 990.4 hPa 2.8 m/s 10.2 mm
04:00 -6.6° 992.1 hPa 2.1 m/s 10.8 mm -6.3° 992.5 hPa 2.1 m/s -9.4° 988.6 hPa 1.7 m/s 10.8 mm
07:00 -6.5° 991.0 hPa 2.3 m/s 12.0 mm -6.2° 991.2 hPa 2.4 m/s -10.2° 988.5 hPa 1.1 m/s 12.0 mm
10:00 -5.6° 991.4 hPa 2.1 m/s 13.4 mm -5.5° 991.5 hPa 2.1 m/s -7.8° 990.5 hPa 1.2 m/s 13.4 mm
13:00 -4.5° 991.9 hPa 2.0 m/s 15.4 mm -4.7° 991.7 hPa 1.9 m/s -2.9° 994.1 hPa 3.2 m/s 15.4 mm
16:00 -5.4° 992.5 hPa 2.2 m/s 16.4 mm -5.6° 992.1 hPa 2.1 m/s -4.3° 997.1 hPa 3.3 m/s 16.4 mm
19:00 -6.4° 993.1 hPa 2.3 m/s 16.8 mm -6.4° 992.5 hPa 2.3 m/s -6.8° 999.6 hPa 2.4 m/s 16.8 mm
22:00 -6.3° 994.1 hPa 1.6 m/s 17.0 mm -6.2° 993.5 hPa 1.7 m/s -7.6° 1001.0 hPa 0.9 m/s 17.0 mm
 07:11     17:21    Daglengte: 10:10 Maandag 02 Maa
01:00 -5.9° 994.8 hPa 1.1 m/s 17.4 mm -5.9° 994.4 hPa 1.1 m/s -6.4° 999.0 hPa 1.6 m/s 17.4 mm
04:00 -6.2° 995.5 hPa 1.3 m/s 20.6 mm -6.3° 995.2 hPa 1.1 m/s -4.2° 999.0 hPa 3.0 m/s 20.6 mm
07:00 -6.5° 996.4 hPa 1.6 m/s 22.9 mm -6.8° 996.0 hPa 1.2 m/s -3.3° 1001.4 hPa 5.9 m/s 22.9 mm
13:00 -3.2° 999.0 hPa 1.7 m/s 24.1 mm -3.3° 998.3 hPa 1.4 m/s -2.1° 1006.7 hPa 4.9 m/s 24.1 mm
19:00 -5.9° 1000.9 hPa 1.6 m/s 24.9 mm -5.9° 1000.3 hPa 1.6 m/s -5.7° 1007.2 hPa 1.9 m/s 24.9 mm
 07:07     17:24    Daglengte: 10:17 Dinsdag 03 Maa
01:00 -6.8° 1003.4 hPa 1.4 m/s 31.6 mm -7.0° 1003.4 hPa 1.4 m/s -4.6° 1003.6 hPa 1.4 m/s 31.6 mm
07:00 -6.9° 1004.5 hPa 1.4 m/s 35.9 mm -7.7° 1004.4 hPa 1.2 m/s 1.5° 1006.2 hPa 3.9 m/s 35.9 mm
13:00 -8.5° 1011.4 hPa 1.8 m/s 40.3 mm -9.5° 1011.6 hPa 1.6 m/s 2.6° 1009.2 hPa 3.9 m/s 40.3 mm
19:00 -5.4° 1008.7 hPa 2.3 m/s 43.5 mm -5.9° 1008.5 hPa 2.3 m/s 0.6° 1011.0 hPa 2.6 m/s 43.5 mm
 07:04     17:28    Daglengte: 10:24 Woensdag 04 Maa
01:00 -6.3° 1010.7 hPa 2.0 m/s 44.3 mm -6.6° 1010.6 hPa 2.1 m/s -3.0° 1011.9 hPa 1.2 m/s 44.3 mm
07:00 -9.6° 1011.5 hPa 2.2 m/s 44.3 mm -9.8° 1011.5 hPa 2.2 m/s -6.9° 1011.2 hPa 1.6 m/s 44.3 mm
13:00 -2.1° 1009.3 hPa 1.9 m/s 44.3 mm -2.1° 1009.3 hPa 1.9 m/s 44.3 mm
19:00 -9.1° 1007.8 hPa 3.1 m/s 44.3 mm -9.1° 1007.8 hPa 3.1 m/s 44.3 mm
 07:00     17:31    Daglengte: 10:31 Donderdag 05 Maa
01:00 -4.5° 991.8 hPa 2.6 m/s 0.8 mm
07:00 -3.9° 991.1 hPa 2.1 m/s 0.8 mm
13:00 -0.9° 991.5 hPa 1.5 m/s 0.8 mm
19:00 -3.9° 991.6 hPa 1.5 m/s 0.8 mm
 06:56     17:35    Daglengte: 10:39 Vrijdag 06 Maa
01:00 -4.3° 992.2 hPa 1.7 m/s 1.5 mm
07:00 -5.4° 992.3 hPa 1.6 m/s 0.8 mm
13:00 -1.4° 991.6 hPa 2.2 m/s 0.7 mm
19:00 -5.6° 991.8 hPa 1.7 m/s 0.8 mm
 06:52     17:38    Daglengte: 10:46 Zaterdag 07 Maa
01:00 -7.1° 993.5 hPa 1.1 m/s 0.8 mm
07:00 -6.8° 994.7 hPa 1.2 m/s 0.8 mm
13:00 -0.8° 996.3 hPa 1.2 m/s 1.0 mm
19:00 -5.6° 997.7 hPa 1.5 m/s 1.0 mm
 06:48     17:41    Daglengte: 10:53 Zondag 08 Maa
01:00 -5.9° 999.4 hPa 1.6 m/s 0.9 mm
07:00 -6.3° 1000.5 hPa 0.9 m/s 0.8 mm
13:00 -1.6° 1001.7 hPa 1.0 m/s 1.0 mm
19:00 -5.6° 1002.9 hPa 1.4 m/s 1.1 mm
 06:44     17:45    Daglengte: 11:01 Maandag 09 Maa
01:00 -6.2° 1003.4 hPa 2.1 m/s 1.0 mm
07:00 -6.2° 1002.2 hPa 2.2 m/s 0.9 mm
13:00 -0.7° 1000.6 hPa 2.6 m/s 1.0 mm
19:00 -4.7° 1000.3 hPa 1.6 m/s 1.3 mm
 06:40     17:48    Daglengte: 11:08 Dinsdag 10 Maa
01:00 -5.0° 1000.7 hPa 1.7 m/s 1.3 mm
FMI Hirlam - 7.5 km EWN WRFDA - 12 km DWD ICON - 7 km GFS - 25 km Basiskaart






























































Updatetijd (Europe/Brussels) Resolutie Lengte Stap
FMI Hirlam 00:45, 06:45, 12:45, 18:45 7.5 km 49h 1h
EWN WRFDA 02:15, 08:15, 14:15, 20:15 12 km 73h 1h
DWD ICON 04:45, 10:45, 16:45, 22:45 7 km 75h 1h
GFS 00:45, 06:45, 12:45, 18:45 25 km 237h 3h
30+ mm
25-30 mm
20-25 mm
15-20 mm
10-15 mm
6-10 mm
4-6 mm
2-4 mm
1-2 mm
0.5-1 mm
0.2-0.5 mm
0.1-0.2 mm
30+ mm
25-30 mm
20-25 mm
15-20 mm
10-15 mm
6-10 mm
4-6 mm
2-4 mm
1-2 mm
0.5-1 mm
0.2-0.5 mm
0.1-0.2 mm
Sneeuwval
Natte sneeuw
Hagel
Vorst
30+ mm
25-30 mm
20-25 mm
15-20 mm
10-15 mm
6-10 mm
4-6 mm
2-4 mm
1-2 mm
0.5-1 mm
0.2-0.5 mm
0.1-0.2 mm
Sneeuwval
Natte sneeuw
Hagel
Vorst
Onweer
50 mm
40 mm
30 mm
26 mm
22 mm
18 mm
14 mm
10 mm
9 mm
8 mm
7 mm
6 mm
5 mm
4.5 mm
4 mm
3.5 mm
3 mm
2.5 mm
2 mm
1.5 mm
1 mm
0.8 mm
0.6 mm
0.4 mm
0.2 mm
0.05 mm
35°
30°
25°
20°
15°
10°
-5°
-10°
-15°
-20°
-25°
-30°
-35°
33> m/s
29 m/s
25 m/s
21 m/s
17 m/s
14 m/s
11 m/s
8 m/s
5 m/s
3 m/s
0 m/s
2600 J/kg
2400 J/kg
2200 J/kg
2000 J/kg
1800 J/kg
1600 J/kg
1400 J/kg
1200 J/kg
1000 J/kg
800 J/kg
600 J/kg
400 J/kg
200 J/kg
70 dBZ
65 dBZ
60 dBZ
55 dBZ
50 dBZ
45 dBZ
40 dBZ
35 dBZ
30 dBZ
25 dBZ
20 dBZ
15 dBZ
10 dBZ
5 dBZ
-1 K
-2 K
-3 K
-4 K
-5 K
-6 K
-7 K
-8 K
-9 K
950 m²/s²
900 m²/s²
850 m²/s²
800 m²/s²
750 m²/s²
700 m²/s²
650 m²/s²
600 m²/s²
550 m²/s²
500 m²/s²
450 m²/s²
400 m²/s²
350 m²/s²
300 m²/s²
250 m²/s²
200 m²/s²
150 m²/s²
100 m²/s²
46 m/s
44 m/s
42 m/s
40 m/s
38 m/s
36 m/s
34 m/s
32 m/s
30 m/s
28 m/s
26 m/s
24 m/s
22 m/s
20 m/s
16 m/s
12 m/s
8 m/s
4 m/s
30 m/s
28 m/s
26 m/s
24 m/s
22 m/s
20 m/s
18 m/s
16 m/s
14 m/s
12 m/s
10 m/s
8 m/s
6 m/s
4 m/s
2 m/s
3.0
2.8
2.6
2.4
2.2
2.0
1.8
1.6
1.4
1.2
1.0
0.8
0.6
0.4
0.2
15
14
13
12
11
10
9
8
7
6
5
4
3
2
1
90%
80%
70%
60%
50%
40%
30%
20%
10%
42
40
38
36
34
32
30
28
26
24
22
20
18
16
14
12
90+ cm
80-90 cm
70-80 cm
60-70 cm
50-60 cm
40-50 cm
30-40 cm
20-30 cm
10-20 cm
1-10 cm
Sneeuwval
Natte sneeuw
Regen
>120 mm
115 mm
110 mm
105 mm
100 mm
95 mm
90 mm
85 mm
80 mm
75 mm
70 mm
65 mm
60 mm
55 mm
50 mm
45 mm
45 mm
40 mm
35 mm
30 mm
25 mm
20 mm
15 mm
10 mm
5 mm
0.1 mm
960 hPa
880 hPa
800 hPa
720 hPa
640 hPa
560 hPa
584 gpdm
568 gpdm
552 gpdm
536 gpdm
520 gpdm
504 gpdm
488 gpdm
Extreem zwaar Noodweer Kans op onweer
15% 15% 5% 50% 15%

Dag




Kaart






35°
30°
25°
20°
15°
10°
-5°
-10°
-15°
-20°
-25°
-30°
-35°
33> m/s
29 m/s
25 m/s
21 m/s
17 m/s
14 m/s
11 m/s
8 m/s
5 m/s
3 m/s
0 m/s
Extreem zwaar Noodweer Kans op onweer
15% 15% 5% 50% 15%
>120 mm
115 mm
110 mm
105 mm
100 mm
95 mm
90 mm
85 mm
80 mm
75 mm
70 mm
65 mm
60 mm
55 mm
50 mm
45 mm
45 mm
40 mm
35 mm
30 mm
25 mm
20 mm
15 mm
10 mm
5 mm
0.1 mm
Onweer risico kaarten - De groene en gele kleur geeft de kans op onweer aan binnen 40 km van een punt. Oranje, rood en violet hebben hetzelfde niveau zoals je het ziet op estofex.org waaronder ook de kans op hagel en supercells.

dBZ - dBZ staat voor decibel ten opzichte van Z.

Cape - Convective available potential energy (CAPE), is de totale hoeveelheid energie die een luchtpakketje nodig heeft om zover mogelijk te stijgen in de atmosfeer.

K Index - K-Index wordt berekend door de Vertical Totals (VT) en het verschil tussen de 850 hPa temperatuur en de 700 hPa dauwpuntsdepressie (Tdd 700) bij elkaar op te tellen.

TT Index - Convectie index wordt gebruikt voor het voorspellen van zware buien of onweer.

WRF - The Weather Research and Forecasting (WRF) is een volgende generatie mesoscale numeriek weersvoorspelling systeem ontworpen om zowel de operationele planning als het atmosferisch onderzoek te dienen. WRF is a cooperatie tussen het National Center for Atmospheric Research (NCAR), National Centers for Environmental Prediction (NCEP), Forecast Systems Laboratory (FSL), Air Force Weather Agency (AFWA), Naval Research Laboratory, University of Oklahoma, en de Federal Aviation Administration (FAA). Deze software draait op onze server.

WRFDA - Een meer geavanceerde versie van WRF

Arome - Het 2.5 km Arome model. Verzorgd door het Noors Meteorologisch Instituut.

MET Norway - De proff-default 4km meteorological data is een beste keus selectie van meteorologische modellen gebruikt door met.no die zijn geïnterpoleerd tot een gemeenschappelijke dataset. Verzorgd door het Noorse Meteorologisch Instituut.

SMHI - Het Hirlam model verzorgd door het Zweeds meteorologisch instituut.

FMI - Het Hirlam model verzorgd door het Fins meteorologisch instituut. Dekking alleen Finland.

GFS - Het Global Forecast Systeem (GFS) is een wereldwijd numerieke weersvoorspelling computermodel, gerund door NOAA.

GEM-GDPS - Het GEM-GDPS is a wereldwijd numeriek weersvoorspelling computermodel verzorgd door het Canadees Meteorologisch Centrum.

Credits/Info: Dank aan Stefan Gofferje van sääkeskus.fi voor enkele formules van GrADS. Info: Wikipedia.

Betrouwbaarheid van de verwachting

NB! 2015-03-29: Rebuilding the accuracy-test!

EWNACC
Day 1 Good forecasts

Dag 1 Tmax

Dag 2 Tmax

Geladen verwachtingen TOP 50

Totaal geladen verwachtingen:
Plaats Latitude Longitude Verwachtingen Plaats Latitude Longitude Verwachtingen